COSMOS 1275 DEB, 12732

Orbit data source: Space-Track

COSMOS 1275 DEB, 12732 is space debris in LEO originally from a launch on Thu, 04 Jun 1981 UTC launched from the Plesetsk Missile And Space Complex (PKMTR). Debris objects in space refer to the collection of defunct objects orbiting the Earth. Examples of debris include non-operational satellites, rocket bodies, and fragments generated from explosions, collisions, or faulty payload assembly.

Loading next visibility...
Identifier
12732, 1981-053BZ
Orbit
LEO
Country
Flag of CISCIS
Related business
Manufacturer
Unknown
Mission
Spacecraft
Bus & Motor
Unknown
Mass
Unknown
Launch date (UTC)
1981-06-04 (45 years ago)
Launch vehicle
Unknown
Launch site
Plesetsk Missile And Space Complex (PKMTR)
Object type
Payload
Rocket body
Debris
Shape & HBR
Unknown shape, 0.1 m
Radar Cross Section
Medium (>0.1 m² and <1 m²)

Expand to show TLE details & history
Last TLE update: 2 days ago

TLE from 2 days ago
0 COSMOS 1275 DEB
1 12732U 81053BZ  26174.44475442  .00000260  00000-0  19007-3 0  9994
2 12732  82.9874  59.0330 0053219  79.5744 100.5120 13.91591335272012
Epoch: 2026-06-23T10:40Z
TLE epoch observation values (Epoch: 2026-06-23T10:40:26.781Z)
Latitude
-0.80054°
Longitude
167.40315°
Altitude
933.381 km
Speed
7.381 km/s
True Right ascension
15h 56m 31s
True Declination
0° 47' 45"
Sunlit
Object was in full shadow at epoch
Visualization orbit readout
Latitude
Unknown
Longitude
Unknown
Altitude
Unknown
Speed
Unknown
Apparent Right ascension
Unknown
Apparent Declination
Unknown
Sunlit
N/A
Visualization observer readout
Local Sidereal Time
11:24:09
Azimuth
Unknown
Elevation
Unknown
Doppler factor
Unknown
Orbital elements
Apogee altitude
959.024 km
Perigee altitude
881.342 km
Semi-major axis
7,298.32 km
Eccentricity
0.00532
Inclination
82.9874°
RAAN
59.033°
Arg. of periapsis
79.5744°
True anomaly
101.11087°
Mean anomaly
100.512°
Eccentric anomaly
100.81151°
Mean motion
3.48104 °/min
Orbital period
103.42 mins
BSTAR
0.00019007
Loading maneuver chart data...
Computing Atmospheric mass density...

Documentation

Showing up to 5 results
|